Regional Weather Roundup
Issued by NWS

Home | Current Version | Previous Version | Text Only | Print | Product List | Glossary On
Versions: 1 2 3 4 5 6 7 8 9 10 11 12 13 14 15 16 17 18 19 20 21 22 23 24 25 26 27 28 29 30 31 32 33 34 35 36 37 38 39 40 41 42 43 44 45 46 47 48 49 50
000
ASUS43 KDMX 110907
RWRIA

WEATHER ROUNDUP FOR IOWA
NATIONAL WEATHER SERVICE DES MOINES IA
400 AM CDT FRI JUL 11 2014

NOTE: "FAIR" INDICATES FEW OR NO CLOUDS BELOW 12,000 FEET WITH NO
SIGNIFICANT WEATHER AND/OR OBSTRUCTIONS TO VISIBILITY.

* - THESE STATIONS ARE NOT NWS STATIONS...THUS NOT UNDER NWS
QUALITY CONTROL.  THEY ALSO DO NOT REPORT WEATHER SUCH
AS PRECIPITATION OR FOG.

IAZ001>003-012>014-020>022-031>034-043>046-111000-
   NORTHWEST IOWA

CITY           SKY/WX    TMP DP  RH WIND       PRES   REMARKS
CARROLL *      PTCLDY    68  63  83 S8        30.04R
CHEROKEE *     CLOUDY    68  66  94 S5        30.02S
DENISON *      CLEAR     68  64  88 VRB5      30.01S
LE MARS *      LGT RAIN  70  66  88 S8        30.00F
ORANGE CITY *  LGT RAIN  72  66  83 S5        30.01F
SHELDON *      LGT RAIN  68  66  94 S10       30.00F
SIOUX CITY     CLOUDY    71  66  84 SE8       29.98R
SPENCER        LGT RAIN  68  62  81 S8        30.03R
STORM LAKE *   CLEAR     66  64  94 SE8       30.04S
$$

IAZ055>058-069>071-079>083-090>094-111000-
   SOUTHWEST IOWA

CITY           SKY/WX    TMP DP  RH WIND       PRES   REMARKS
ATLANTIC *     CLEAR     68  63  83 S6G12     30.02S
AUDUBON *      CLEAR     70  64  83 S5        30.04S
CLARINDA *     CLEAR     68  64  88 SE7       30.04S
COUNCIL BLFS * CLEAR     68  68 100 S13G21    29.99S
CRESTON *      CLEAR     64  61  88 S7        30.06R
HARLAN  *      CLEAR     68  64  88 S8        30.05S
LAMONI         CLEAR     64  59  83 SE9       30.06F
RED OAK *      CLEAR     68  64  88 SE7       30.01F
SHENANDOAH *   CLEAR     68  66  94 SE10      30.01F
$$

IAZ047>049-059>061-072>074-084-111000-
   CENTRAL IOWA

CITY           SKY/WX    TMP DP  RH WIND       PRES   REMARKS
AMES           MOCLDY    64  60  87 SE6       30.06S
ANKENY *       CLEAR     68  59  73 S8        30.07R
CHARITON *     CLOUDY    64  59  82 SE12      30.07S
DES MOINES     CLOUDY    68  59  73 S10       30.06S
GRINNELL*      MOCLDY    66  57  72 SE8       30.09F
KNOXVILLE *    CLOUDY    64  57  77 SE8       30.06F
MARSHALLTOWN   CLOUDY    68  57  68 S12       30.08S
PELLA *        PTCLDY    66  57  72 SE8       30.09F
PERRY *          N/A     66  61  82 SE5       30.06R
$$

IAZ004>006-015-016-023>025-035-036-111000-
   NORTH CENTRAL IOWA

CITY           SKY/WX    TMP DP  RH WIND       PRES   REMARKS
ALGONA *       CLOUDY    68  61  77 S10G16    30.06R
CLARION *      CLEAR     68  59  73 S13G21    30.07R
ESTHERVILLE    LGT RAIN  67  61  81 S12       30.04R
FORT DODGE *   CLOUDY    70  59  68 S8G16     30.07R
MASON CITY     LGT RAIN  65  60  84 S9        30.08S
FOREST CITY *  LGT RAIN  66  59  77 S10       30.07R
IOWA FALLS *     N/A     66  57  72 SE9       30.08S
$$

IAZ007>011-017>019-026>030-037>042-050>054-066-111000-
   NORTHEAST IOWA

CITY           SKY/WX    TMP DP  RH WIND       PRES   REMARKS
CEDAR RAPIDS   CLEAR     63  56  78 S7        30.11F
CHARLES CITY * LGT RAIN  64  59  82 S10       30.10S
CLINTON *      PTCLDY    63  57  82 S6        30.17S
DECORAH *        N/A    N/A N/A N/A MISG        N/A
DUBUQUE        PTCLDY    62  59  90 S9        30.15R
MONTICELLO *   CLEAR     64  61  88 SE6       30.13S
OELWEIN *      CLOUDY    66  66 100 S9        30.12S
WATERLOO       LGT RAIN  67  57  70 S12       30.09R
$$

IAZ064-065-067-068-078-111000-
   EAST CENTRAL IOWA

CITY           SKY/WX    TMP DP  RH WIND       PRES   REMARKS
DAVENPORT      PTCLDY    63  56  78 S7        30.14F
IOWA CITY      CLEAR     62  58  86 SE6       30.13F
MT. PLEASANT * CLEAR     61  55  82 SE6       30.13S
MUSCATINE *    MOCLDY    59  55  88 CALM      30.13F
QUAD CITIES    CLEAR     63  56  78 S7        30.14S
$$

IAZ062-063-075>077-085>089-095>099-111000-
   SOUTHEAST IOWA

CITY           SKY/WX    TMP DP  RH WIND       PRES   REMARKS
BURLINGTON     CLEAR     66  55  67 S7        30.13F
FAIRFIELD *    CLEAR     63  55  77 SE9       30.12S
FORT MADISON * CLEAR     68  55  64 SE9       30.14S
KEOKUK *       CLEAR     66  57  72 SE9       30.12S
OSKALOOSA *      N/A     61  59  94 SE9       30.09F
CENTERVILLE *  CLEAR     64  57  77 SE8       30.11S
OTTUMWA        CLEAR     65  56  72 SE9       30.09F
WASHINGTON *   CLEAR     61  59  94 S6        30.12F
$$

ABBREVIATIONS USED IN REMARKS
   TC - TEMPERATURES IN CELSIUS
  WCI - WIND CHILL INDEX
   HX - HEAT INDEX
  VSB - VISIBILITY
$$




USA.gov is the U.S. government's official web portal to all federal, state and local government web resources and services.